Regional Weather Roundup
Issued by NWS Portland, ME

Current Version | Previous Version | Text Only | Print | Product List | Glossary Off
Versions: 1 2 3 4 5 6 7 8 9 10 11 12 13 14 15 16 17 18 19 20 21 22 23 24 25 26 27 28 29 30 31 32 33 34 35 36 37 38 39 40 41 42 43 44 45 46 47 48 49 50

597
ASUS41 KGYX 181810
RWRGYX
WEATHER ROUNDUP FOR MAINE AND NEW HAMPSHIRE
NATIONAL WEATHER SERVICE GRAY ME
200 PM EDT THU OCT 18 2018

MEZ002-005-006-010-012-015-018-020-021-024-026-027-029-181900-
MAINE

CITY           SKY/WX    TMP DP  RH WIND       PRES   REMARKS
PORTLAND       FAIR      43  20  39 NW15G26   30.13R
6HR MIN TEMP:  34; 6HR MAX TEMP:  45;

SANFORD        FAIR      42  16  34 W18G28    30.15R
BAR HARBOR     PTSUNNY   41  16  36 NW18G26   29.98R
WISCASSET      FAIR      40  18  41 W9G21     30.11R
6HR MIN TEMP:  35; 6HR MAX TEMP:  43;

ROCKLAND       FAIR      42  17  36 NW15G35   30.03S
FRYEBURG       PTSUNNY   41  17  38 NW13G23   30.14F
6HR MIN TEMP:  33; 6HR MAX TEMP:  41; 6HR PCP: TRACE;

LEWISTONAUBURN FAIR      40  18  41 NW18G29   30.11S
AUGUSTA        FAIR      40  17  39 NW15G30   30.08R
6HR MIN TEMP:  34; 6HR MAX TEMP:  41;

WATERVILLE     PTSUNNY   41  18  39 NW20G29   30.04R
BANGOR         PTSUNNY   42  15  33 NW23G37   30.00S
6HR MIN TEMP:  35; 6HR MAX TEMP:  43;

GREENVILLE       N/A     35  15  44 W14G32    29.94F
6HR MIN TEMP:  28; 6HR MAX TEMP:  35;

MILLINOCKET    CLOUDY    38  15  39 NW24G37   29.96R
6HR MIN TEMP:  33; 6HR MAX TEMP:  39; 6HR PCP: TRACE;

HOULTON        PTSUNNY   39  15  37 NW25G37   29.86S
6HR MIN TEMP:  32; 6HR MAX TEMP:  39;

PRESQUE ISLE   PTSUNNY   38  17  42 NW24G40   29.87R
6HR MIN TEMP:  31; 6HR MAX TEMP:  38; 6HR PCP: TRACE;

FRENCHVILLE    PTSUNNY   37  18  46 NW22G38   29.83R
6HR MIN TEMP:  31; 6HR MAX TEMP:  39; 6HR PCP: TRACE;

CARIBOU        CLOUDY    38  17  42 NW17G33   29.84R
6HR MIN TEMP:  32; 6HR MAX TEMP:  39;

$$

NHZ002-005-008-009-011-012-014-181900-
NEW HAMPSHIRE

CITY           SKY/WX    TMP DP  RH WIND       PRES   REMARKS
PORTSMOUTH     MOSUNNY   44  15  30 NW17G25   30.15S
ROCHESTER      FAIR      43  19  38 NW10G23   30.15S
6HR MIN TEMP:  35; 6HR MAX TEMP:  43;

NASHUA         FAIR      45  15  30 NW20G26   30.20F
MANCHESTER     FAIR      43  13  29 NW13G18   30.18S
6HR MIN TEMP:  37; 6HR MAX TEMP:  44;

CONCORD        FAIR      43  16  33 NW15G26   30.18S
6HR MIN TEMP:  34; 6HR MAX TEMP:  43;

LACONIA        FAIR      39  16  39 W14G24    30.17S
PLYMOUTH       PTSUNNY   39  19  43 W15G25    30.18S
BERLIN         PTSUNNY   35  19  52 NW8G23    30.12S
6HR MIN TEMP:  30; 6HR MAX TEMP:  35; 6HR PCP: TRACE;

WHITEFIELD     CLOUDY    37  21  52 NW14G28   30.15F
6HR MIN TEMP:  30; 6HR MAX TEMP:  38; 6HR PCP: TRACE;

JAFFREY        FAIR      41  16  36 VRB7G17   30.18F
6HR MIN TEMP:  32; 6HR MAX TEMP:  41;

KEENE          FAIR      42  15  33 N14G20    30.22
LEBANON        FAIR      41  16  36 NW12G29   30.20F
6HR MIN TEMP:  33; 6HR MAX TEMP:  42;

MT WASHINGTON  SNOW       9   9 100 NW67G83     N/A  VSB 1/8 WCI -22
6HR MIN TEMP:   6; 6HR MAX TEMP:  10; 6HR PCP:  0.21;

$$

VTZ005-007-008-181900-
VERMONT

CITY           SKY/WX    TMP DP  RH WIND       PRES   REMARKS
ST JOHNSBURY     N/A     36  20  52 MISG      30.18F
MONTPELIER     CLOUDY    34  20  56 NW15G26   30.23S
BURLINGTON     FAIR      42  18  37 NW16G24   30.25F
$$

MAZ007-012-024-CTZ003-RIZ002-NYZ038-NYZ072-181900-
SOUTHERN NEW ENGLAND AND NY

CITY           SKY/WX    TMP DP  RH WIND       PRES   REMARKS
BOSTON         FAIR      48  15  26 NW14G25   30.20S
WORCESTER      FAIR      42  17  36 W15G23    30.19F
NANTUCKET      FAIR      46  20  35 W14G22    30.20S
PROVIDENCE     FAIR      47  16  29 NW18G25   30.22F
HARTFORD       FAIR      47  17  30 NW14G28   30.26F
ALBANY         FAIR      44  18  35 W22       30.31F
NEW YORK CITY  FAIR      51  23  33 NW17G28   30.32F
$$

ANZ081-ANZ082-ANZ150-NHZ014-MEZ023>029-181900-
COASTAL MARINE OBSERVATIONS

STATION/POSITION TIME  TEMP    WIND        PRES    WAVE
                       AIR SEA DIR/SP/G            HT/PER
                 (UTC) (F)     (DEG/KT/KT) (MB)    (FT/S)
MOUNT DESERT ROC 1800   41     280/ 30/ 34 1015.3R
MATINICUS ROCK   1700   41     290/ 33/ 37 1016.3R
ISLE OF SHOALS   1700   41     300/ 24/ 26 1020.6
JEFFREYS LEDGE   1706      55                N/A     7/ 6
$$

.............KEY..............
   WCI - WIND CHILL
   TC  - TEMPERATURE IN CELSIUS
   VSB - VISIBILITY IN MILES
   HX  - HEAT INDEX
   FAIR- INDICATES FEW OR NO CLOUDS BELOW 12,000 FT, WITH NO
         SIGNIFICANT WEATHER AND/OR OBSTRUCTIONS TO VISIBILITY.






USA.gov is the U.S. government's official web portal to all federal, state and local government web resources and services.